Regional Weather Roundup
Issued by NWS

Home | Current Version | Previous Version | Graphics & Text | Print | Product List | Glossary On
Versions: 1 2 3 4 5 6 7 8 9 10 11 12 13 14 15 16 17 18 19 20 21 22 23 24 25 26 27 28 29 30 31 32 33 34 35 36 37 38 39 40 41 42 43 44 45 46 47 48 49 50
742
ASUS45 KBOU 251410
RWRCO

WEATHER ROUNDUP FOR COLORADO
NATIONAL WEATHER SERVICE DENVER/BOULDER CO
700 AM MST SUN FEB 25 2018

NOTE: "FAIR" INDICATES FEW OR NO CLOUDS BELOW 12000 FEET WITH NO
SIGNIFICANT WEATHER AND/OR OBSTRUCTIONS TO VISIBILITY.

COZ001>005-013-030-031-251500-
...NORTHWEST COLORADO...

CITY           SKY/WX    TMP DP  RH WIND       PRES   REMARKS
CRAIG          FAIR       3   0  87 CALM      29.97R
HAYDEN         CLOUDY    12   9  87 N3        29.95R FOG
MEEKER         FAIR       7   2  80 CALM      29.98R
RANGELY        FAIR       2  -1  83 E3        30.05R
RABBIT EARS PA SNOW     N/A N/A N/A W10G20    29.73R VSB 1/2
STEAMBOAT SPGS CLOUDY    13  10  91 CALM      29.92R
WALDEN         MOCLDY     9   3  78 SW10      29.82R WCI  -6
$$

COZ006>008-011-251500-
...WEST CENTRAL VALLEYS...

CITY           SKY/WX    TMP DP  RH WIND       PRES   REMARKS
GRAND JUNCTION FAIR      21  19  92 E5        30.05R WCI  15
MONTROSE       FLURRIES  21  16  81 W3        30.06R
EAGLE          FAIR      10   6  84 E9        29.97R WCI  -3
RIFLE          CLOUDY    16  11  80 SW3       30.03R
DELTA          CLOUDY    21  19  91 E5        30.06R WCI  15
NUCLA          FAIR      18  12  79 E8        30.07R WCI   7
$$

COZ017>023-064>068-251500-
...SOUTHWEST COLORADO...

CITY           SKY/WX    TMP DP  RH WIND       PRES   REMARKS
DURANGO        FAIR      19  14  81 W6        29.98R WCI  11
CORTEZ         CLOUDY    16  14  92 E6        30.04R WCI   7
PAGOSA SPRINGS CLOUDY    17  15  94 CALM      29.94R
TELLURIDE      LGT SNOW  12  10  91 W6        29.93R WCI   2
WOLF CREEK PAS CLOUDY     0  -2  92 W7        29.84R WCI -13
$$

COZ009-010-012-014-032>034-037-058>063-251500-
...CENTRAL COLORADO...

CITY           SKY/WX    TMP DP  RH WIND       PRES   REMARKS
ASPEN          CLOUDY    10   7  87 CALM      29.90R FOG
BUENA VISTA    FAIR       9   2  73 CALM      29.87R
COPPER MTN     LGT SNOW   1  -6  71 W28G37    29.68R VSB 3/4 WCI -23
BERTHOUD PASS  SNOW      -8 -17  65 NW33G44   29.60S VSB<1/4 WCI -37
COTTONWOOD PAS CLOUDY    14   1  57 NW10G20   29.80R WCI   1
GUNNISON       MOCLDY     7   3  84 N7        29.93R WCI  -5
GRANBY         CLOUDY    10   5  82 W10       29.85R WCI  -4
KREMMLING      FAIR       9   5  85 CALM      29.90R
LEADVILLE      CLOUDY     5  -3  69 NW12      29.78R WCI -11
MONARCH PASS   CLOUDY     0  -6  78 W30       29.81S WCI -26
SALIDA         FAIR      19   0  43 W14G24    29.96R WCI   6
SUNLIGHT       LGT SNOW   3   0  85 SW8G23    29.84R WCI -10
WILKERSON PASS FAIR       0  -6  78 W9        29.73R WCI -16
$$

COZ069>075-251500-
...SAN LUIS VALLEY/SANGRE DE CRISTO MOUNTAINS...

CITY           SKY/WX    TMP DP  RH WIND       PRES   REMARKS
ALAMOSA        FAIR      13   3  64 N3        29.90R
DEL NORTE      FAIR       9   0  66 W3        29.90R
LA VETA PASS   SNOW       9   5  85 SW9       29.91R VSB 1/2 WCI  -5
SAGUACHE       NOT AVBL
$$

COZ035-036-038>040-251500-
...NORTHERN COLORADO FRONT RANGE...

CITY           SKY/WX    TMP DP  RH WIND       PRES   REMARKS
DENVER INTL AP FAIR      20   4  50 SW9       29.85S WCI   9
AURORA         PTCLDY    19   1  46 W7        29.87R WCI  10
FRONT RANGE AP FAIR      19   6  58 SW8       29.86R WCI   8
ERIE MUNI ARPT FAIR      26   5  41 W17       29.91R WCI  13
BOULDER MUN AP FAIR      27   5  39 W17       29.86R WCI  14
CENTENNIAL     FAIR      14   2  58 S6        29.85R WCI   5
BROOMFIELD     PTCLDY    25   5  42 W30G36    29.84R WCI   8
FORT COLLINS   FAIR      19   3  49 VRB6      29.88R WCI  11
LONGMONT       FAIR      28   4  35 W14G21    29.88R WCI  17
$$

COZ041-046-047-076>085-087-088-251500-
...PIKES PEAK/PALMER DIVIDE AND SOUTHERN FOOTHILLS...

CITY           SKY/WX    TMP DP  RH WIND       PRES   REMARKS
COLO. SPRINGS  FAIR      16   4  59 CALM      29.87S
A. F. ACADEMY  FAIR      11   1  65 SE3       29.85R
SCHRIEVER AFB  NOT AVBL
CHEYENNE MTN   FAIR      19  -3  37 NE3       29.78R
ELLICOTT         N/A    N/A N/A N/A CALM        N/A
FALCON         FAIR      12   2  64 W8        29.85S WCI   0
FORT CARSON    FAIR      14   5  67 NW9       29.87R WCI   2
LIMON          FAIR       8   3  80 NW9       29.89R WCI  -5
MONUMENT HILL  FAIR      14   1  57 SW7       29.84R WCI   4
CANON CITY     CLEAR     18   7  62 CALM      29.92R
WALSENBURG     NOT AVBL
TRINIDAD       FAIR      15   2  56 CALM      29.89R
$$

COZ042>045-048>051-090-091-251500-
...NORTHEAST COLORADO...

CITY           SKY/WX    TMP DP  RH WIND       PRES   REMARKS
GREELEY ARPT   FAIR       9   3  77 NW5       29.88R WCI   1
AKRON          FAIR      18   8  65 SW13      29.86R WCI   5
BURLINGTON     FAIR      18  10  71 W9        29.92R WCI   7
WRAY           FAIR      21  12  68 W9        29.91R WCI  11
YUMA           NOT AVBL
STERLING       FAIR      14  10  85 CALM      29.88R
HOLYOKE        FAIR      19  10  68 SW7       29.89R WCI  10
FORT MORGAN    FAIR      12   5  73 W3        29.88R
$$

COZ086-089-092>099-251500-
...SOUTHEAST COLORADO...

CITY           SKY/WX    TMP DP  RH WIND       PRES   REMARKS
PUEBLO         FAIR      14   7  73 CALM      29.93R
LA JUNTA       FAIR      16   8  71 SW6       29.94R WCI   7
LAMAR          FAIR       4  -1  80 SW8       29.95R WCI  -9
SPRINGFIELD      N/A     14   7  73 NW7       29.92R WCI   4
$$




USA.gov is the U.S. government's official web portal to all federal, state and local government web resources and services.